Weather History for Bentonville, AR

Change the Weather History Date:

Thursday, January 31, 2013

  Actual Average Record
Temperature  
Mean Temperature 34 °F -  
Max Temperature 46 °F 47 °F 65 °F (1967)
Min Temperature 19 °F 24 °F -4 °F (1979)
Degree Days  
Heating Degree Days 32    
Moisture  
Dew Point 20 °F    
Average Humidity 67    
Maximum Humidity 86    
Minimum Humidity 46    
Precipitation  
Precipitation 0.00 in - - ()
Sea Level Pressure  
Sea Level Pressure 30.14 in    
Wind  
Wind Speed 6 mph (WNW)    
Max Wind Speed 18 mph    
Max Gust Speed 24 mph    
Visibility 10 miles    
Events      
Averages and records for this station are not official NWS values.
T = Trace of Precipitation, MM = Missing Value Source: NWS Daily Summary

Daily Weather History Graph

Daily Weather History Graph

Search for Another Location

Airport:

Trip Planner

Search our weather history database for the weather conditions in past years. The results will help you decide how hot, cold, wet, or windy it might be!

Date:

Astronomy

Jan. 31, 2013 Rise Set
Actual Time 7:18 AM CST 5:42 PM CST
Civil Twilight 6:51 AM CST 6:09 PM CST
Nautical Twilight 6:20 AM CST 6:40 PM CST
Astronomical Twilight 5:50 AM CST 7:10 PM CST
Moon 10:34 PM CST (1/31) 9:28 AM CST (1/31)
Length of Visible Light 11h 18m
Length of Day
10h 23m
Waning Gibbous, 79% of the Moon is Illuminated
Jan 31
Waning Gibbous
Feb 3
Last Quarter
Feb 10
New
Feb 17
First Quarter
Feb 25
Full

Hourly Weather History & Observations

Time (CST) Temp. Windchill Dew Point Humidity Pressure Visibility Wind Dir Wind Speed Gust Speed Precip Events Conditions
12:15 AM 24.8 °F - 19.4 °F 80% 30.02 in 10.0 mi Calm Calm - N/A   Clear
12:35 AM 21.2 °F - 17.6 °F 86% 30.00 in 10.0 mi Calm Calm - N/A   Clear
1:15 AM 23.0 °F 15.8 °F 17.6 °F 80% 30.01 in 10.0 mi SSW 5.8 mph - N/A   Clear
1:36 AM 24.8 °F 19.1 °F 19.4 °F 80% 30.01 in 10.0 mi SSW 4.6 mph - N/A   Clear
1:55 AM 24.8 °F 19.1 °F 19.4 °F 80% 30.01 in 10.0 mi SSW 4.6 mph - N/A   Clear
2:15 AM 24.8 °F - 19.4 °F 80% 29.99 in 10.0 mi Calm Calm - N/A   Clear
2:55 AM 21.2 °F 13.6 °F 17.6 °F 86% 29.99 in 10.0 mi SSE 5.8 mph - N/A   Clear
3:15 AM 21.2 °F 14.9 °F 17.6 °F 86% 29.99 in 10.0 mi SSW 4.6 mph - N/A   Clear
3:35 AM 23.0 °F 17.0 °F 17.6 °F 80% 29.99 in 10.0 mi SSW 4.6 mph - N/A   Clear
4:15 AM 23.0 °F 18.4 °F 19.4 °F 86% 29.99 in 10.0 mi SW 3.5 mph - N/A   Clear
4:35 AM 23.0 °F - 19.4 °F 86% 29.98 in 10.0 mi Calm Calm - N/A   Clear
4:55 AM 21.2 °F 14.9 °F 17.6 °F 86% 29.98 in 10.0 mi South 4.6 mph - N/A   Clear
5:16 AM 21.2 °F 14.9 °F 17.6 °F 86% 29.99 in 10.0 mi South 4.6 mph - N/A   Clear
5:35 AM 23.0 °F 17.0 °F 17.6 °F 80% 29.99 in 10.0 mi SSW 4.6 mph - N/A   Clear
5:55 AM 21.2 °F 14.9 °F 17.6 °F 86% 29.99 in 10.0 mi South 4.6 mph - N/A   Clear
6:35 AM 24.8 °F 17.9 °F 19.4 °F 80% 29.99 in 10.0 mi SSW 5.8 mph - N/A   Clear
7:15 AM 24.8 °F 17.9 °F 19.4 °F 80% 30.00 in 10.0 mi SW 5.8 mph - N/A   Clear
7:36 AM 24.8 °F 19.1 °F 19.4 °F 80% 30.00 in 10.0 mi SW 4.6 mph - N/A   Clear
7:55 AM 26.6 °F 19.1 °F 21.2 °F 80% 30.01 in 10.0 mi SSW 6.9 mph - N/A   Clear
8:15 AM 28.4 °F 21.2 °F 21.2 °F 74% 30.02 in 10.0 mi SW 6.9 mph - N/A   Clear
9:15 AM 33.8 °F 28.6 °F 24.8 °F 70% 30.04 in 10.0 mi SW 5.8 mph - N/A   Clear
9:55 AM 37.4 °F 32.1 °F 24.8 °F 60% 30.07 in 10.0 mi WSW 6.9 mph - N/A   Clear
10:15 AM 39.2 °F 33.6 °F 26.6 °F 61% 30.09 in 10.0 mi West 8.1 mph - N/A   Clear
10:35 AM 41.0 °F 34.7 °F 23.0 °F 49% 30.09 in 10.0 mi West 10.4 mph - N/A   Partly Cloudy
10:56 AM 42.8 °F 38.0 °F 24.8 °F 49% 30.10 in 10.0 mi West 8.1 mph - N/A   Mostly Cloudy
11:15 AM 42.8 °F 38.0 °F 26.6 °F 53% 30.09 in 10.0 mi West 8.1 mph - N/A   Mostly Cloudy
11:35 AM 42.8 °F 38.0 °F 26.6 °F 53% 30.09 in 10.0 mi West 8.1 mph - N/A   Overcast
11:55 AM 44.6 °F 38.8 °F 26.6 °F 49% 30.10 in 10.0 mi West 11.5 mph - N/A   Partly Cloudy
12:15 PM 46.4 °F 41.5 °F 26.6 °F 46% 30.10 in 10.0 mi WNW 10.4 mph - N/A   Clear
12:55 PM 44.6 °F 39.2 °F 26.6 °F 49% 30.09 in 10.0 mi NW 10.4 mph 16.1 mph N/A   Clear
1:15 PM 46.4 °F 41.9 °F 26.6 °F 46% 30.10 in 10.0 mi NW 9.2 mph 19.6 mph N/A   Clear
1:35 PM 46.4 °F 40.4 °F 26.6 °F 46% 30.10 in 10.0 mi NNW 13.8 mph 19.6 mph N/A   Clear
1:55 PM 44.6 °F 38.8 °F 26.6 °F 49% 30.11 in 10.0 mi NNW 11.5 mph - N/A   Clear
2:15 PM 42.8 °F 35.8 °F 24.8 °F 49% 30.11 in 10.0 mi NNW 13.8 mph 18.4 mph N/A   Partly Cloudy
3:15 PM 39.2 °F 31.6 °F 24.8 °F 56% 30.14 in 10.0 mi NNW 12.7 mph 19.6 mph N/A   Scattered Clouds
3:35 PM 39.2 °F 31.2 °F 24.8 °F 56% 30.18 in 10.0 mi NNW 13.8 mph 17.3 mph N/A   Scattered Clouds
3:55 PM 37.4 °F 28.5 °F 23.0 °F 56% 30.19 in 10.0 mi North 15.0 mph - N/A   Mostly Cloudy
4:15 PM 35.6 °F 27.5 °F 23.0 °F 60% 30.19 in 10.0 mi North 11.5 mph - N/A   Overcast
4:35 PM 33.8 °F 22.8 °F 23.0 °F 65% 30.22 in 10.0 mi North 18.4 mph 24.2 mph N/A   Overcast
4:55 PM 32.0 °F 20.5 °F 21.2 °F 64% 30.23 in 10.0 mi North 18.4 mph - N/A   Overcast
5:15 PM 30.2 °F 19.8 °F 19.4 °F 64% 30.22 in 5.0 mi North 13.8 mph 21.9 mph N/A   Overcast
5:35 PM 28.4 °F 20.4 °F 21.2 °F 74% 30.24 in 10.0 mi North 8.1 mph 19.6 mph N/A   Overcast
6:15 PM 28.4 °F 21.2 °F 19.4 °F 69% 30.27 in 10.0 mi NNW 6.9 mph - N/A   Overcast
6:35 PM 28.4 °F 19.1 °F 19.4 °F 69% 30.28 in 10.0 mi North 10.4 mph - N/A   Mostly Cloudy
6:55 PM 28.4 °F 19.7 °F 19.4 °F 69% 30.29 in 10.0 mi North 9.2 mph - N/A   Mostly Cloudy
7:16 PM 26.6 °F 17.5 °F 19.4 °F 74% 30.30 in 10.0 mi North 9.2 mph - N/A   Mostly Cloudy
7:35 PM 26.6 °F 17.5 °F 14.0 °F 59% 30.32 in 10.0 mi NNW 9.2 mph - N/A   Mostly Cloudy
7:55 PM 24.8 °F 16.1 °F 12.2 °F 59% 30.33 in 10.0 mi NNW 8.1 mph - N/A   Partly Cloudy
8:35 PM 24.8 °F 15.3 °F 12.2 °F 59% 30.35 in 10.0 mi NNW 9.2 mph - N/A   Clear
8:55 PM 24.8 °F 16.1 °F 12.2 °F 59% 30.37 in 10.0 mi North 8.1 mph - N/A   Clear
9:15 PM 23.0 °F 15.8 °F 12.2 °F 63% 30.37 in 10.0 mi NNW 5.8 mph - N/A   Clear
9:35 PM 23.0 °F 15.8 °F 10.4 °F 59% 30.39 in 10.0 mi NNW 5.8 mph - N/A   Clear
9:55 PM 23.0 °F 15.8 °F 10.4 °F 59% 30.38 in 10.0 mi NNW 5.8 mph - N/A   Clear
10:15 PM 21.2 °F 10.9 °F 10.4 °F 63% 30.38 in 10.0 mi North 9.2 mph - N/A   Clear
10:55 PM 21.2 °F 13.6 °F 8.6 °F 58% 30.39 in 10.0 mi NNW 5.8 mph - N/A   Clear
11:15 PM 21.2 °F 11.7 °F 8.6 °F 58% 30.39 in 10.0 mi North 8.1 mph - N/A   Clear
11:36 PM 19.4 °F 12.8 °F 8.6 °F 63% 30.39 in 10.0 mi NNW 4.6 mph - N/A   Clear